Orbital Elements at Epoch 2459200.5 (2020-Dec-17.0) TDB
Reference: JPL 16 (heliocentric ecliptic J2000)
Element | Value | Uncertainty (1-sigma) | Units |
e | .229860671236096 | 5.2274e-08 | |
a | 2.304804720195682 | 5.4239e-09 | au |
q | 1.775020760143381 | 1.2082e-07 | au |
i | 4.090574017562791 | 5.4699e-06 | deg |
node | 229.941492464579 | 5.111e-05 | deg |
peri | 203.2002191501691 | 5.2188e-05 | deg |
M | 2.630033341941903 | 7.9044e-06 | deg |
tp | 2459191.162977993608 (2020-Dec-07.66297799) | 2.8061e-05 | TDB |
period | 1278.055250744141 3.50 | 4.5115e-06 1.235e-08 | d yr |
n | .28167796328867 | 9.943e-10 | deg/d |
Q | 2.834588680247984 | 6.6706e-09 | au |
|
| | Orbit Determination Parameters
Additional Information
|